Torna al catalogo

ELECTRON KICK STAGE R/B

AttivoSSO
NORAD 65300·ROCKET BODY·🇺🇸 United States

Lanciato Aug 23, 2025 da Rocket Lab Launch Complex 1

Loading…

Prossimi Passaggi (prossime 24 ore)

TLE

AggiornatoSource: Space-Track

Epoca: Sep 14, 2026, 10:48 UTC

1 65300U 25185D   26257.45036828  .00000902  00000-0  15329-3 0  9997
2 65300  97.9419 336.0968 0012017 141.9465 218.2593 14.71412114 56828

Traccia ELECTRON KICK STAGE R/B in tempo reale con AllMySat

Download on the App Store